Weather History for Mankato, MN

Change the Weather History Date:

Saturday, July 27, 2013

  Actual Average Record
Temperature  
Mean Temperature 55 °F -  
Max Temperature 64 °F 78 °F 89 °F (2010)
Min Temperature 46 °F 61 °F 46 °F (2013)
Degree Days  
Heating Degree Days 10    
Growing Degree Days 5 (Base 50)    
Moisture  
Dew Point 45 °F    
Average Humidity 68    
Maximum Humidity 87    
Minimum Humidity 45    
Precipitation  
Precipitation 0.00 in - - ()
Sea Level Pressure  
Sea Level Pressure 30.04 in    
Wind  
Wind Speed 9 mph (NNW)    
Max Wind Speed 22 mph    
Max Gust Speed 29 mph    
Visibility 10 miles    
Events      
Averages and records for this station are not official NWS values.
T = Trace of Precipitation, MM = Missing Value Source: NWS Daily Summary

Daily Weather History Graph

Daily Weather History Graph

Search for Another Location

Airport:

Trip Planner

Search our weather history database for the weather conditions in past years. The results will help you decide how hot, cold, wet, or windy it might be!

Date:

Astronomy

Jul. 27, 2013 Rise Set
Actual Time 5:58 AM CDT 8:45 PM CDT
Civil Twilight 5:24 AM CDT 9:19 PM CDT
Nautical Twilight 4:41 AM CDT 10:01 PM CDT
Astronomical Twilight 3:51 AM CDT 10:50 PM CDT
Moon 11:17 PM CDT (7/27) 11:54 AM CDT (7/27)
Length of Visible Light 15h 54m
Length of Day
14h 47m
Waning Gibbous, 70% of the Moon is Illuminated
Jul 27
Waning Gibbous
Jul 29
Last Quarter
Aug 6
New
Aug 14
First Quarter
Aug 20
Full

Hourly Weather History & Observations

Time (CDT) Temp. Windchill Dew Point Humidity Pressure Visibility Wind Dir Wind Speed Gust Speed Precip Events Conditions
12:15 AM 53.6 °F - 46.4 °F 77% 30.10 in 10.0 mi NNW 9.2 mph - N/A   Clear
12:35 AM 53.6 °F - 46.4 °F 77% 30.10 in 10.0 mi NNW 6.9 mph - N/A   Clear
12:55 AM 51.8 °F - 46.4 °F 82% 30.09 in 10.0 mi NNW 6.9 mph - N/A   Clear
1:15 AM 51.8 °F - 46.4 °F 82% 30.09 in 10.0 mi NNW 9.2 mph - N/A   Clear
1:35 AM 51.8 °F - 44.6 °F 76% 30.09 in 10.0 mi NNW 8.1 mph - N/A   Clear
1:55 AM 51.8 °F - 44.6 °F 76% 30.10 in 10.0 mi NNW 9.2 mph - N/A   Clear
2:15 AM 51.8 °F - 44.6 °F 76% 30.09 in 10.0 mi NNW 10.4 mph - N/A   Clear
2:35 AM 51.8 °F - 44.6 °F 76% 30.09 in 10.0 mi NNW 8.1 mph - N/A   Clear
2:55 AM 50.0 °F - 44.6 °F 82% 30.09 in 10.0 mi NNW 8.1 mph - N/A   Clear
3:15 AM 50.0 °F - 44.6 °F 82% 30.09 in 10.0 mi NNW 8.1 mph - N/A   Clear
3:35 AM 50.0 °F - 44.6 °F 82% 30.08 in 10.0 mi North 9.2 mph - N/A   Partly Cloudy
3:55 AM 50.0 °F - 44.6 °F 82% 30.09 in 10.0 mi NNW 8.1 mph - N/A   Mostly Cloudy
4:15 AM 50.0 °F - 44.6 °F 82% 30.09 in 10.0 mi NNW 9.2 mph - N/A   Scattered Clouds
4:35 AM 48.2 °F - 44.6 °F 87% 30.09 in 10.0 mi NNW 9.2 mph - N/A   Clear
4:55 AM 48.2 °F - 44.6 °F 87% 30.09 in 10.0 mi NNW 8.1 mph - N/A   Clear
5:15 AM 48.2 °F - 42.8 °F 82% 30.10 in 10.0 mi North 6.9 mph - N/A   Clear
5:35 AM 48.2 °F - 42.8 °F 82% 30.10 in 10.0 mi North 8.1 mph - N/A   Clear
5:55 AM 46.4 °F 42.9 °F 42.8 °F 87% 30.10 in 10.0 mi NNW 6.9 mph - N/A   Scattered Clouds
6:15 AM 46.4 °F 43.5 °F 42.8 °F 87% 30.11 in 10.0 mi NNW 5.8 mph - N/A   Scattered Clouds
6:35 AM 48.2 °F - 44.6 °F 87% 30.10 in 10.0 mi NW 6.9 mph - N/A   Mostly Cloudy
6:55 AM 48.2 °F - 44.6 °F 87% 30.10 in 10.0 mi NW 6.9 mph - N/A   Partly Cloudy
7:15 AM 48.2 °F - 44.6 °F 87% 30.10 in 10.0 mi NW 6.9 mph - N/A   Clear
7:35 AM 48.2 °F - 44.6 °F 87% 30.10 in 10.0 mi NW 8.1 mph - N/A   Clear
7:55 AM 48.2 °F - 44.6 °F 87% 30.10 in 10.0 mi NW 10.4 mph - N/A   Scattered Clouds
8:15 AM 50.0 °F - 44.6 °F 82% 30.10 in 10.0 mi NNW 9.2 mph - N/A   Overcast
8:35 AM 50.0 °F - 44.6 °F 82% 30.10 in 10.0 mi NNW 9.2 mph - N/A   Overcast
8:55 AM 51.8 °F - 44.6 °F 76% 30.09 in 10.0 mi NW 10.4 mph - N/A   Mostly Cloudy
9:15 AM 53.6 °F - 44.6 °F 72% 30.09 in 10.0 mi NNW 10.4 mph - N/A   Partly Cloudy
9:35 AM 55.4 °F - 46.4 °F 72% 30.08 in 10.0 mi NNW 15.0 mph 18.4 mph N/A   Clear
9:55 AM 57.2 °F - 44.6 °F 63% 30.08 in 10.0 mi NNW 15.0 mph 23.0 mph N/A   Clear
10:15 AM 57.2 °F - 44.6 °F 63% 30.07 in 10.0 mi NNW 13.8 mph - N/A   Partly Cloudy
10:35 AM 59.0 °F - 44.6 °F 59% 30.07 in 10.0 mi NNW 15.0 mph 21.9 mph N/A   Mostly Cloudy
10:55 AM 59.0 °F - 42.8 °F 55% 30.06 in 10.0 mi NNW 13.8 mph 21.9 mph N/A   Overcast
11:15 AM 60.8 °F - 42.8 °F 52% 30.06 in 10.0 mi NNW 18.4 mph 24.2 mph N/A   Mostly Cloudy
11:35 AM - - - N/A% 30.05 in 10.0 mi NNW 19.6 mph 26.5 mph N/A   Mostly Cloudy
11:55 AM - - - N/A% 30.04 in 10.0 mi NNW 17.3 mph - N/A   Mostly Cloudy
12:15 PM - - - N/A% 30.04 in 10.0 mi NW 20.7 mph 26.5 mph N/A   Overcast
12:35 PM 62.6 °F - 42.8 °F 48% 30.04 in 10.0 mi NW 17.3 mph 25.3 mph N/A   Overcast
12:55 PM 62.6 °F - 42.8 °F 48% 30.03 in 10.0 mi North 21.9 mph 26.5 mph N/A   Overcast
1:15 PM - - - N/A% 30.02 in 10.0 mi NNW 20.7 mph 28.8 mph N/A   Overcast
1:35 PM 62.6 °F - 42.8 °F 48% 30.02 in 10.0 mi NW 20.7 mph 27.6 mph N/A   Overcast
1:55 PM 64.4 °F - 42.8 °F 45% 30.03 in 10.0 mi North 18.4 mph - N/A   Overcast
2:15 PM 64.4 °F - 44.6 °F 49% 30.02 in 10.0 mi NNE 16.1 mph 20.7 mph N/A   Overcast
2:35 PM 62.6 °F - 44.6 °F 52% 30.02 in 10.0 mi North 10.4 mph - N/A   Overcast
2:55 PM 62.6 °F - 44.6 °F 52% 30.02 in 10.0 mi North 12.7 mph - N/A   Overcast
3:15 PM 62.6 °F - 44.6 °F 52% 30.02 in 10.0 mi NNW 12.7 mph - N/A   Overcast
3:35 PM 62.6 °F - 46.4 °F 55% 30.02 in 10.0 mi NE 10.4 mph - N/A   Overcast
3:55 PM 60.8 °F - 46.4 °F 59% 30.01 in 10.0 mi NE 5.8 mph - N/A   Overcast
4:15 PM 62.6 °F - 44.6 °F 52% 30.00 in 10.0 mi North 5.8 mph - N/A   Overcast
4:35 PM 62.6 °F - 46.4 °F 55% 30.00 in 10.0 mi NNE 6.9 mph - N/A   Overcast
4:55 PM 62.6 °F - 44.6 °F 52% 30.00 in 10.0 mi North 4.6 mph - N/A   Overcast
5:15 PM 62.6 °F - 46.4 °F 55% 29.99 in 10.0 mi North 5.8 mph - N/A   Overcast
5:35 PM 62.6 °F - 44.6 °F 52% 29.99 in 10.0 mi North 6.9 mph - N/A   Overcast
5:55 PM 62.6 °F - 46.4 °F 55% 29.98 in 10.0 mi NNW 5.8 mph - N/A   Overcast
6:15 PM 62.6 °F - 46.4 °F 55% 29.98 in 10.0 mi NW 4.6 mph - N/A   Overcast
6:35 PM 62.6 °F - 46.4 °F 55% 29.98 in 10.0 mi NW 4.6 mph - N/A   Overcast
6:55 PM 62.6 °F - 46.4 °F 55% 29.97 in 10.0 mi WNW 4.6 mph - N/A   Overcast
7:15 PM 62.6 °F - 46.4 °F 55% 29.97 in 10.0 mi WNW 4.6 mph - N/A   Overcast
7:35 PM 62.6 °F - 48.2 °F 59% 29.97 in 10.0 mi West 4.6 mph - N/A   Overcast
7:55 PM 60.8 °F - 50.0 °F 68% 29.97 in 10.0 mi West 3.5 mph - N/A   Overcast
8:15 PM 60.8 °F - 50.0 °F 68% 29.96 in 10.0 mi West 4.6 mph - N/A   Overcast
8:35 PM 60.8 °F - 50.0 °F 68% 29.96 in 10.0 mi West 5.8 mph - N/A   Overcast
8:55 PM 60.8 °F - 48.2 °F 63% 29.96 in 10.0 mi NW 3.5 mph - N/A   Overcast
9:15 PM 60.8 °F - 50.0 °F 68% 29.97 in 10.0 mi North 6.9 mph - N/A   Overcast
9:35 PM 60.8 °F - 46.4 °F 59% 29.98 in 10.0 mi NE 11.5 mph - N/A   Overcast
9:55 PM 59.0 °F - 46.4 °F 63% 29.98 in 10.0 mi NE 6.9 mph - N/A   Overcast
10:15 PM 59.0 °F - 46.4 °F 63% 29.99 in 10.0 mi North 8.1 mph - N/A   Overcast
10:35 PM 59.0 °F - 46.4 °F 63% 29.99 in 10.0 mi North 6.9 mph - N/A   Overcast
10:55 PM 59.0 °F - 46.4 °F 63% 29.99 in 10.0 mi North 8.1 mph - N/A   Overcast
11:15 PM 59.0 °F - 46.4 °F 63% 29.99 in 10.0 mi North 6.9 mph - N/A   Overcast
11:35 PM 57.2 °F - 46.4 °F 67% 29.99 in 10.0 mi NNW 5.8 mph - N/A   Overcast
11:55 PM 57.2 °F - 46.4 °F 67% 29.99 in 10.0 mi NNW 8.1 mph - N/A   Overcast